COSMOS 2251 DEB, 35585

Orbit data source: Space-Track

COSMOS 2251 DEB, 35585 is space debris in LEO originally from a launch on Wed, 16 Jun 1993 UTC launched from the Plesetsk Missile And Space Complex (PKMTR). The debris from Iridium 33, an American commercial communications satellite, has been tracked extensively since its accidental collision with the defunct Russian satellite Cosmos 2251 in 2009. This event, occurring at high speed in low Earth orbit (LEO), generated thousands of pieces of space debris, significantly increasing the risk of further collisions. The Iridium 33 debris cloud has impacted space traffic management and orbital debris mitigation strategies, making it a subject of ongoing study in space situational awareness.

Loading next visibility...
Identifier
35585, 1993-036AMC
Orbit
LEO
Country
Flag of CISCIS
Related business
Manufacturer
Unknown
Mission
Spacecraft
Bus & Motor
Unknown
Mass
Unknown
Launch date (UTC)
1993-06-16 (33 years ago)
Launch vehicle
Unknown
Launch site
Plesetsk Missile And Space Complex (PKMTR)
Object type
Payload
Rocket body
Debris
Shape & HBR
Unknown shape, 0.1 m
Radar Cross Section
Small (<0.1 m²)

Expand to show TLE details & history
Last TLE update: 21 hours ago

TLE from 21 hours ago
0 COSMOS 2251 DEB
1 35585U 93036AMC 26236.89633081  .00000834  00000-0  62813-3 0  9992
2 35585  73.9698 282.1245 0303776 142.0704  31.2418 13.76040246675727
Epoch: 2026-08-24T21:30Z
TLE epoch observation values (Epoch: 2026-08-24T21:30:42.981Z)
Latitude
4.55353°
Longitude
164.96979°
Altitude
790.837 km
Speed
7.554 km/s
True Right ascension
06h 43m 16s
True Declination
4° 31' 35"
Sunlit
Object was in daylight at epoch
Visualization orbit readout
Latitude
Unknown
Longitude
Unknown
Altitude
Unknown
Speed
Unknown
Apparent Right ascension
Unknown
Apparent Declination
Unknown
Sunlit
N/A
Visualization observer readout
Local Sidereal Time
09:24:38
Azimuth
Unknown
Elevation
Unknown
Doppler factor
Unknown
Orbital elements
Apogee altitude
1,199.049 km
Perigee altitude
752.268 km
Semi-major axis
7,353.795 km
Eccentricity
0.03038
Inclination
73.9698°
RAAN
282.1245°
Arg. of periapsis
142.0704°
True anomaly
33.1074°
Mean anomaly
31.2418°
Eccentric anomaly
32.16846°
Mean motion
3.44172 °/min
Orbital period
104.6 mins
BSTAR
0.00062813
Loading maneuver chart data...
Computing Atmospheric mass density...

Documentation

Showing up to 5 results
|